Language: 


Des rapports , des résumés tant et plus, au choix de chacun....


Données Historiques de Météogheer
Journalier Rapport pour Janvier 11, 2018 Unitée:  Métrique    Impériale   Les deux
Suivant Jour »
Journalier Hebdomadaire Mensuel Annuel Sur mesure
  Max: Min: Moyenne:
Température: 5.6 °C 2.3 °C 4.6 °C
Point de rosée: 6.0 °C 3.0 °C 4.7 °C
Humidité: 98% 98% 98%
Vent: 9.7km/h 0.0km/h 0.4km/h
Rafales: 11.6km/h - -
Vent- - WSW
Pression: 1022.9 hPa 1008.0 hPa -
Pluie: 0.3 mm    
Historical Graphs
 
 
Données tabulaires pour Janvier 11, 2018
Heure Température Point de rosée Pression Vent Vent Rafales Humidité Pluie Taux (Horaire) Conditions
01:02 2.7 °C 3.0 °C 1009.0 hPa Calm     98% 0.0 mm
01:10 2.7 °C 3.0 °C 1009.0 hPa Calm     98% 0.0 mm
01:16 2.9 °C 3.0 °C 1009.0 hPa Calm   2.6 km/h 98% 0.0 mm
01:24 2.9 °C 3.0 °C 1009.0 hPa Calm   2.6 km/h 98% 0.0 mm
01:31 3.0 °C 3.0 °C 1009.0 hPa Calm     98% 0.0 mm
01:36 3.1 °C 3.0 °C 1009.0 hPa Calm     98% 0.0 mm
01:41 3.3 °C 3.0 °C 1009.0 hPa Calm     98% 0.0 mm
01:46 3.3 °C 3.0 °C 1009.0 hPa Calm     98% 0.0 mm
01:53 3.3 °C 3.0 °C 1009.0 hPa Calm     98% 0.0 mm
02:01 3.1 °C 3.0 °C 1009.0 hPa Calm     98% 0.0 mm
02:06 2.9 °C 3.0 °C 1009.0 hPa Calm     98% 0.0 mm
02:19 2.7 °C 3.0 °C 1008.0 hPa Calm     98% 0.0 mm
02:32 2.5 °C 3.0 °C 1009.0 hPa Calm     98% 0.0 mm
02:45 2.4 °C 3.0 °C 1009.0 hPa Calm     98% 0.0 mm
02:59 2.3 °C 3.0 °C 1009.0 hPa Calm     98% 0.0 mm
03:10 2.3 °C 3.0 °C 1009.0 hPa Calm     98% 0.0 mm
03:25 2.7 °C 3.0 °C 1009.0 hPa NNE 9.7 km/h 9.7 km/h 98% 0.0 mm
03:36 3.1 °C 3.0 °C 1010.0 hPa NNE 6.4 km/h 7.9 km/h 98% 0.0 mm
03:47 3.3 °C 3.0 °C 1010.0 hPa North 1.4 km/h 6.1 km/h 98% 0.0 mm
03:57 3.4 °C 3.0 °C 1010.0 hPa Calm   4.3 km/h 98% 0.0 mm
04:12 3.4 °C 3.0 °C 1010.0 hPa Calm     98% 0.0 mm
04:21 3.4 °C 3.0 °C 1010.0 hPa Calm     98% 0.0 mm
04:38 3.4 °C 3.0 °C 1010.0 hPa Calm     98% 0.0 mm
04:46 3.6 °C 4.0 °C 1010.0 hPa Calm     98% 0.0 mm
04:59 4.0 °C 4.0 °C 1010.0 hPa Calm     98% 0.0 mm
05:06 4.3 °C 4.0 °C 1010.0 hPa Calm     98% 0.0 mm
05:11 4.4 °C 4.0 °C 1010.0 hPa Calm     98% 0.0 mm
05:16 4.4 °C 4.0 °C 1010.0 hPa Calm     98% 0.0 mm
05:26 4.6 °C 5.0 °C 1011.1 hPa Calm   6.9 km/h 98% 0.0 mm
05:41 4.5 °C 5.0 °C 1011.1 hPa Calm     98% 0.0 mm
05:46 4.5 °C 5.0 °C 1011.1 hPa Calm     98% 0.0 mm
06:00 4.4 °C 4.0 °C 1011.1 hPa Calm   1.4 km/h 98% 0.0 mm
06:07 4.4 °C 4.0 °C 1011.1 hPa Calm   1.4 km/h 98% 0.0 mm
06:30 4.3 °C 4.0 °C 1010.0 hPa Calm   4.7 km/h 98% 0.0 mm
06:36 4.3 °C 4.0 °C 1010.0 hPa Calm     98% 0.0 mm
06:41 4.2 °C 4.0 °C 1011.1 hPa Calm     98% 0.0 mm
06:46 4.2 °C 4.0 °C 1011.1 hPa Calm     98% 0.0 mm
07:02 4.3 °C 4.0 °C 1011.1 hPa Calm     98% 0.0 mm
07:13 4.3 °C 4.0 °C 1012.1 hPa Calm     98% 0.0 mm
07:18 4.3 °C 4.0 °C 1012.1 hPa Calm     98% 0.0 mm
07:27 4.3 °C 4.0 °C 1012.1 hPa Calm     98% 0.0 mm
07:40 4.4 °C 4.0 °C 1013.1 hPa Calm     98% 0.0 mm
07:46 4.4 °C 4.0 °C 1013.1 hPa Calm     98% 0.0 mm
07:51 4.4 °C 4.0 °C 1013.1 hPa Calm     98% 0.0 mm
08:03 4.4 °C 4.0 °C 1013.1 hPa Calm     98% 0.0 mm
08:19 4.4 °C 4.0 °C 1012.1 hPa Calm     98% 0.0 mm
08:29 4.4 °C 4.0 °C 1013.1 hPa Calm   1.4 km/h 98% 0.0 mm
08:36 4.4 °C 4.0 °C 1013.1 hPa Calm     98% 0.0 mm
08:42 4.5 °C 5.0 °C 1013.1 hPa Calm   3.2 km/h 98% 0.0 mm
09:00 4.6 °C 5.0 °C 1014.1 hPa Calm     98% 0.0 mm
09:07 4.6 °C 5.0 °C 1014.1 hPa Calm   1.4 km/h 98% 0.0 mm
09:14 4.7 °C 5.0 °C 1014.1 hPa Calm   2.6 km/h 98% 0.0 mm
09:24 4.7 °C 5.0 °C 1014.1 hPa Calm     98% 0.0 mm
09:29 4.7 °C 5.0 °C 1014.1 hPa Calm   3.2 km/h 98% 0.0 mm
09:39 4.8 °C 5.0 °C 1014.1 hPa Calm   2.1 km/h 98% 0.0 mm
09:44 4.9 °C 5.0 °C 1014.1 hPa Calm     98% 0.0 mm
09:51 5.0 °C 5.0 °C 1014.1 hPa Calm     98% 0.0 mm
10:14 5.0 °C 5.0 °C 1015.1 hPa Calm   1.8 km/h 98% 0.0 mm
10:20 5.0 °C 5.0 °C 1015.1 hPa Calm     98% 0.0 mm
10:30 5.1 °C 5.0 °C 1014.1 hPa Calm   3.2 km/h 98% 0.0 mm
10:35 5.1 °C 5.0 °C 1014.1 hPa Calm   4.0 km/h 98% 0.0 mm
10:42 5.1 °C 5.0 °C 1015.1 hPa Calm   2.6 km/h 98% 0.0 mm
10:47 5.1 °C 5.0 °C 1015.1 hPa Calm   2.6 km/h 98% 0.0 mm
11:04 5.3 °C 6.0 °C 1015.1 hPa Calm     98% 0.0 mm
11:09 5.3 °C 6.0 °C 1015.1 hPa Calm   4.0 km/h 98% 0.0 mm
11:20 5.3 °C 6.0 °C 1015.1 hPa Calm     98% 0.0 mm
11:26 5.3 °C 6.0 °C 1016.1 hPa Calm   1.4 km/h 98% 0.0 mm
11:36 5.3 °C 6.0 °C 1016.1 hPa Calm   5.5 km/h 98% 0.0 mm
11:41 5.3 °C 6.0 °C 1016.1 hPa Calm   5.5 km/h 98% 0.0 mm
11:49 5.4 °C 6.0 °C 1016.1 hPa Calm     98% 0.0 mm
11:55 5.5 °C 6.0 °C 1016.1 hPa Calm   2.1 km/h 98% 0.0 mm
12:00 5.6 °C 6.0 °C 1016.1 hPa Calm   2.1 km/h 98% 0.0 mm
12:06 5.6 °C 6.0 °C 1016.1 hPa Calm     98% 0.0 mm
12:11 5.5 °C 6.0 °C 1016.8 hPa Calm     98% 0.0 mm
12:17 5.5 °C 6.0 °C 1016.8 hPa Calm     98% 0.0 mm
12:28 5.6 °C 6.0 °C 1016.8 hPa Calm   1.8 km/h 98% 0.0 mm
12:33 5.6 °C 6.0 °C 1016.8 hPa Calm   5.0 km/h 98% 0.0 mm
12:43 5.6 °C 6.0 °C 1016.8 hPa Calm   1.4 km/h 98% 0.0 mm
12:56 5.6 °C 6.0 °C 1016.8 hPa Calm   1.4 km/h 98% 0.0 mm
13:16 5.6 °C 6.0 °C 1016.8 hPa Calm     98% 0.0 mm
13:21 5.6 °C 6.0 °C 1016.8 hPa Calm   4.0 km/h 98% 0.0 mm
13:33 5.6 °C 6.0 °C 1016.8 hPa Calm     98% 0.0 mm
14:06 5.6 °C 6.0 °C 1016.1 hPa West 2.1 km/h 6.4 km/h 98% 0.0 mm
14:12 5.4 °C 6.0 °C 1016.8 hPa Calm   10.5 km/h 98% 0.0 mm
14:24 5.5 °C 6.0 °C 1016.8 hPa Calm   5.8 km/h 98% 0.0 mm
14:38 5.6 °C 6.0 °C 1016.8 hPa Calm     98% 0.0 mm
14:48 5.4 °C 6.0 °C 1016.8 hPa Calm   5.8 km/h 98% 0.0 mm
14:49 5.4 °C 6.0 °C 1016.8 hPa Calm   5.8 km/h 98% 0.0 mm
15:08 5.4 °C 6.0 °C 1018.2 hPa Calm   4.3 km/h 98% 0.0 mm
15:33 5.4 °C 6.0 °C 1018.2 hPa Calm   4.7 km/h 98% 0.0 mm
15:38 5.4 °C 6.0 °C 1018.2 hPa Calm   1.4 km/h 98% 0.0 mm
15:43 5.3 °C 6.0 °C 1018.2 hPa Calm   1.4 km/h 98% 0.0 mm
15:49 5.3 °C 6.0 °C 1018.2 hPa Calm     98% 0.0 mm
15:56 5.2 °C 5.0 °C 1018.2 hPa Calm   1.8 km/h 98% 0.0 mm
16:01 5.1 °C 5.0 °C 1018.8 hPa Calm   1.8 km/h 98% 0.0 mm
16:06 5.1 °C 5.0 °C 1018.8 hPa Calm   3.5 km/h 98% 0.0 mm
16:12 5.1 °C 5.0 °C 1018.8 hPa Calm   3.5 km/h 98% 0.0 mm
16:17 5.1 °C 5.0 °C 1018.8 hPa Calm     98% 0.0 mm
16:26 5.1 °C 5.0 °C 1018.8 hPa Calm   1.4 km/h 98% 0.0 mm
16:35 5.1 °C 5.0 °C 1018.8 hPa Calm   1.4 km/h 98% 0.0 mm
16:42 5.0 °C 5.0 °C 1018.8 hPa Calm     98% 0.0 mm
16:47 5.1 °C 5.0 °C 1018.2 hPa Calm     98% 0.0 mm
16:56 5.0 °C 5.0 °C 1018.8 hPa Calm   1.8 km/h 98% 0.0 mm
17:03 5.0 °C 5.0 °C 1018.8 hPa West 1.4 km/h 4.3 km/h 98% 0.0 mm
17:10 5.0 °C 5.0 °C 1018.8 hPa Calm   5.8 km/h 98% 0.0 mm
17:21 5.0 °C 5.0 °C 1018.2 hPa Calm   2.6 km/h 98% 0.0 mm
17:27 4.9 °C 5.0 °C 1018.8 hPa Calm   2.6 km/h 98% 0.0 mm
17:35 4.9 °C 5.0 °C 1018.8 hPa Calm   3.2 km/h 98% 0.0 mm
17:41 4.9 °C 5.0 °C 1018.8 hPa Calm   1.8 km/h 98% 0.0 mm
17:47 5.0 °C 5.0 °C 1018.8 hPa Calm     98% 0.0 mm
17:53 5.0 °C 5.0 °C 1018.8 hPa Calm     98% 0.0 mm
18:00 5.0 °C 5.0 °C 1019.9 hPa Calm     98% 0.0 mm
18:07 5.1 °C 5.0 °C 1019.9 hPa Calm     98% 0.0 mm
18:15 5.1 °C 5.0 °C 1019.9 hPa Calm     98% 0.0 mm
18:23 5.1 °C 5.0 °C 1019.9 hPa Calm     98% 0.0 mm
18:31 5.1 °C 5.0 °C 1019.9 hPa Calm     98% 0.0 mm
18:41 5.0 °C 5.0 °C 1019.9 hPa Calm   3.5 km/h 98% 0.0 mm
18:46 4.9 °C 5.0 °C 1020.9 hPa Calm   5.0 km/h 98% 0.0 mm
18:53 4.9 °C 5.0 °C 1020.9 hPa Calm   5.0 km/h 98% 0.0 mm
18:59 4.9 °C 5.0 °C 1020.9 hPa Calm   6.1 km/h 98% 0.0 mm
19:04 4.9 °C 5.0 °C 1020.9 hPa Calm   6.4 km/h 98% 0.0 mm
19:10 4.8 °C 5.0 °C 1020.9 hPa Calm   6.4 km/h 98% 0.0 mm
19:11 4.8 °C 5.0 °C 1020.9 hPa Calm   6.4 km/h 98% 0.0 mm
19:17 4.8 °C 5.0 °C 1020.9 hPa North 3.2 km/h 4.0 km/h 98% 0.0 mm
19:31 4.7 °C 5.0 °C 1021.9 hPa Calm   4.7 km/h 98% 0.0 mm
19:36 4.7 °C 5.0 °C 1021.9 hPa Calm   5.8 km/h 98% 0.0 mm
19:41 4.7 °C 5.0 °C 1021.9 hPa Calm   5.8 km/h 98% 0.0 mm
19:47 4.7 °C 5.0 °C 1019.9 hPa Calm   4.0 km/h 98% 0.0 mm
20:05 4.7 °C 5.0 °C 1020.9 hPa Calm   4.3 km/h 98% 0.0 mm
20:10 4.7 °C 5.0 °C 1020.9 hPa Calm   6.4 km/h 98% 0.0 mm
20:20 4.7 °C 5.0 °C 1020.9 hPa Calm   2.1 km/h 98% 0.0 mm
20:27 4.7 °C 5.0 °C 1021.9 hPa NE 5.5 km/h 6.9 km/h 98% 0.0 mm
20:34 4.6 °C 5.0 °C 1021.9 hPa North 4.7 km/h 6.1 km/h 98% 0.0 mm
20:42 4.6 °C 5.0 °C 1021.9 hPa North 1.8 km/h 9.0 km/h 98% 0.0 mm
20:47 4.7 °C 5.0 °C 1021.9 hPa North 5.0 km/h 9.0 km/h 98% 0.0 mm
20:57 4.7 °C 5.0 °C 1021.9 hPa Calm   7.9 km/h 98% 0.0 mm
21:02 4.7 °C 5.0 °C 1021.9 hPa NNW 7.6 km/h 9.0 km/h 98% 0.0 mm
21:08 4.7 °C 5.0 °C 1021.9 hPa Calm   10.1 km/h 98% 0.0 mm
21:18 4.5 °C 5.0 °C 1022.9 hPa North 5.8 km/h 11.6 km/h 98% 0.0 mm
21:52 4.3 °C 4.0 °C 1022.9 hPa Calm   6.4 km/h 98% 0.0 mm
21:57 4.3 °C 4.0 °C 1022.9 hPa Calm   6.4 km/h 98% 0.0 mm
22:02 4.2 °C 4.0 °C 1022.9 hPa Calm   2.6 km/h 98% 0.0 mm
22:14 4.1 °C 4.0 °C 1022.9 hPa Calm   5.5 km/h 98% 0.0 mm
22:26 4.2 °C 4.0 °C 1022.9 hPa Calm   5.5 km/h 98% 0.0 mm
22:35 4.1 °C 4.0 °C 1022.9 hPa Calm   10.1 km/h 98% 0.0 mm
22:48 4.2 °C 4.0 °C 1022.9 hPa North 4.0 km/h 7.9 km/h 98% 0.0 mm
22:57 4.2 °C 4.0 °C 1022.9 hPa Calm   5.5 km/h 98% 0.0 mm
23:07 4.2 °C 4.0 °C 1022.9 hPa Calm   5.8 km/h 98% 0.0 mm
23:14 4.2 °C 4.0 °C 1021.9 hPa Calm   1.8 km/h 98% 0.0 mm
23:22 4.2 °C 4.0 °C 1021.9 hPa Calm   5.8 km/h 98% 0.0 mm
23:28 4.2 °C 4.0 °C 1022.9 hPa NE 6.4 km/h 6.4 km/h 98% 0.0 mm
23:33 4.2 °C 4.0 °C 1022.9 hPa Calm   7.9 km/h 98% 0.0 mm
23:39 4.2 °C 4.0 °C 1022.9 hPa Calm   7.9 km/h 98% 0.3 mm
23:47 4.2 °C 4.0 °C 1022.9 hPa Calm   8.7 km/h 98% 0.3 mm
23:54 4.4 °C 4.0 °C 1022.9 hPa Calm   8.7 km/h 98% 0.3 mm
Données Historique de Météo Turbie

Mise a jour : 20/05/2018 19:46:12
Généré par Cumulus 1.9.4 (1099)